User: anonymous   Login
Location: Unspecified
(0.0000°N, 0.0000°E)
Time: 00:42:19
(UTC+00:00)
Language:

Asterix - Orbit

View from above orbital plane
View from above orbital plane
View from above satellite
View from above satellite

Ground track
Ground track

The orbit data is extracted from the following two-line orbital elements,

1 01778U 65096A   21341.56226303  .00000136  00000-0  43592-4 0  9994
2 01778  34.2557 293.1052 0750725  68.2128 299.6669 13.47060476741643
Epoch (UTC): 07 December 2021 13:29:39
Eccentricity: 0.0750725
inclination: 34.2557°
perigee height: 523 km
apogee height: 1643 km
right ascension of ascending node: 293.1052°
argument of perigee: 68.2128°
revolutions per day: 13.47060476
mean anomaly at epoch: 299.6669°
orbit number at epoch: 74164

The dashed part of the orbit path shows where the satellite is in the earth's shadow,  

DLR